| time (UTC) | temp F | wind direction | speed MPH | gust MPH | rain 1hr in | rain 24hr in | rain mn in | humidity % | barometer mb |
| 20260504224532 | 66 | 209 | 9.0 | 18.0 | 0.00 | 0.00 | 0.00 | 54 | 1014.4 |
| 20260504223800 | 66 | 207 | 7.0 | 15.0 | 0.00 | 0.00 | 0.00 | 53 | 1014.4 |
| 20260504223300 | 67 | 235 | 6.0 | 11.0 | 0.00 | 0.00 | 0.00 | 52 | 1014.4 |
| 20260504222759 | 66 | 229 | 7.0 | 11.0 | 0.00 | 0.00 | 0.00 | 52 | 1014.5 |
| 20260504222300 | 67 | 211 | 7.0 | 11.0 | 0.00 | 0.00 | 0.00 | 50 | 1014.6 |
| 20260504222028 | 67 | 215 | 7.0 | 13.0 | 0.00 | 0.00 | 0.00 | 49 | 1014.6 |
| 20260504221256 | 67 | 235 | 7.0 | 13.0 | 0.00 | 0.00 | 0.00 | 50 | 1014.6 |
| 20260504220756 | 67 | 219 | 7.0 | 11.0 | 0.00 | 0.00 | 0.00 | 49 | 1014.7 |
| 20260504220253 | 67 | 221 | 6.0 | 11.0 | 0.00 | 0.00 | 0.00 | 49 | 1014.7 |
| 20260504215754 | 67 | 217 | 5.0 | 11.0 | 0.00 | 0.00 | 0.00 | 50 | 1014.8 |
| 20260504215254 | 67 | 209 | 6.0 | 12.0 | 0.00 | 0.00 | 0.00 | 49 | 1014.8 |
| 20260504214747 | 67 | 222 | 6.0 | 12.0 | 0.00 | 0.00 | 0.00 | 49 | 1014.9 |
| 20260504214248 | 67 | 252 | 6.0 | 12.0 | 0.00 | 0.00 | 0.00 | 49 | 1014.9 |
| 20260504213747 | 68 | 221 | 8.0 | 15.0 | 0.00 | 0.00 | 0.00 | 48 | 1015.1 |
| 20260504213248 | 68 | 238 | 7.0 | 15.0 | 0.00 | 0.00 | 0.00 | 49 | 1015.1 |
| 20260504212748 | 67 | 216 | 6.0 | 15.0 | 0.00 | 0.00 | 0.00 | 50 | 1015.2 |
| 20260504212241 | 67 | 239 | 6.0 | 15.0 | 0.00 | 0.00 | 0.00 | 50 | 1015.3 |
| 20260504211743 | 67 | 210 | 5.0 | 11.0 | 0.00 | 0.00 | 0.00 | 51 | 1015.3 |
| 20260504211241 | 67 | 215 | 5.0 | 11.0 | 0.00 | 0.00 | 0.00 | 51 | 1015.3 |
| 20260504210742 | 67 | 210 | 6.0 | 15.0 | 0.00 | 0.00 | 0.00 | 51 | 1015.3 |
| 20260504210242 | 67 | 193 | 7.0 | 15.0 | 0.00 | 0.00 | 0.00 | 50 | 1015.3 |
| 20260504205738 | 67 | 190 | 6.0 | 14.0 | 0.00 | 0.00 | 0.00 | 49 | 1015.2 |
| 20260504205237 | 68 | 194 | 6.0 | 13.0 | 0.00 | 0.00 | 0.00 | 48 | 1015.3 |
| 20260504204737 | 68 | 229 | 7.0 | 13.0 | 0.00 | 0.00 | 0.00 | 48 | 1015.5 |
| 20260504204237 | 68 | 209 | 7.0 | 12.0 | 0.00 | 0.00 | 0.00 | 50 | 1015.4 |
| 20260504203737 | 67 | 205 | 7.0 | 12.0 | 0.00 | 0.00 | 0.00 | 49 | 1015.5 |
| 20260504203238 | 67 | 215 | 7.0 | 14.0 | 0.00 | 0.00 | 0.00 | 52 | 1015.5 |
| 20260504202735 | 66 | 179 | 8.0 | 14.0 | 0.00 | 0.00 | 0.00 | 51 | 1015.7 |
| 20260504202507 | 66 | 223 | 8.0 | 14.0 | 0.00 | 0.00 | 0.00 | 51 | 1015.8 |
| 20260504201736 | 66 | 211 | 8.0 | 14.0 | 0.00 | 0.00 | 0.00 | 50 | 1015.8 |
| 20260504201234 | 66 | 180 | 7.0 | 16.0 | 0.00 | 0.00 | 0.00 | 50 | 1015.7 |
| 20260504200731 | 66 | 200 | 8.0 | 16.0 | 0.00 | 0.00 | 0.00 | 49 | 1015.6 |
| 20260504200232 | 66 | 205 | 8.0 | 15.0 | 0.00 | 0.00 | 0.00 | 48 | 1015.8 |
| 20260504195728 | 66 | 243 | 8.0 | 14.0 | 0.00 | 0.00 | 0.00 | 47 | 1015.8 |
| 20260504195459 | 67 | 232 | 7.0 | 14.0 | 0.00 | 0.00 | 0.00 | 46 | 1015.8 |
| 20260504194727 | 67 | 168 | 6.0 | 13.0 | 0.00 | 0.00 | 0.00 | 46 | 1015.8 |
| 20260504194227 | 67 | 222 | 6.0 | 12.0 | 0.00 | 0.00 | 0.00 | 46 | 1015.7 |
| 20260504193727 | 66 | 225 | 6.0 | 10.0 | 0.00 | 0.00 | 0.00 | 48 | 1015.8 |
| 20260504193225 | 66 | 220 | 6.0 | 10.0 | 0.00 | 0.00 | 0.00 | 49 | 1016.0 |
| 20260504192957 | 67 | 222 | 5.0 | 10.0 | 0.00 | 0.00 | 0.00 | 48 | 1015.9 |
| 20260504192224 | 67 | 221 | 7.0 | 14.0 | 0.00 | 0.00 | 0.00 | 49 | 1015.8 |
| 20260504191723 | 67 | 211 | 7.0 | 14.0 | 0.00 | 0.00 | 0.00 | 48 | 1015.8 |
| 20260504191223 | 67 | 228 | 6.0 | 13.0 | 0.00 | 0.00 | 0.00 | 50 | 1015.8 |
| 20260504190725 | 67 | 212 | 5.0 | 12.0 | 0.00 | 0.00 | 0.00 | 50 | 1015.9 |
| 20260504190223 | 66 | 236 | 6.0 | 12.0 | 0.00 | 0.00 | 0.00 | 51 | 1015.9 |
| 20260504185723 | 65 | 242 | 7.0 | 12.0 | 0.00 | 0.00 | 0.00 | 50 | 1015.9 |
| 20260504185456 | 67 | 218 | 7.0 | 14.0 | 0.00 | 0.00 | 0.00 | 49 | 1015.8 |
| 20260504184954 | 67 | 217 | 7.0 | 14.0 | 0.00 | 0.00 | 0.00 | 50 | 1015.9 |
| 20260504184224 | 67 | 222 | 6.0 | 13.0 | 0.00 | 0.00 | 0.00 | 49 | 1016.0 |
| 20260504183719 | 66 | 217 | 5.0 | 11.0 | 0.00 | 0.00 | 0.00 | 51 | 1015.9 |
| 20260504183220 | 65 | 209 | 5.0 | 11.0 | 0.00 | 0.00 | 0.00 | 52 | 1015.8 |
| 20260504182718 | 65 | 221 | 6.0 | 11.0 | 0.00 | 0.00 | 0.00 | 51 | 1016.0 |
| 20260504182218 | 66 | 227 | 5.0 | 9.0 | 0.00 | 0.00 | 0.00 | 52 | 1015.9 |
| 20260504181718 | 66 | 255 | 6.0 | 12.0 | 0.00 | 0.00 | 0.00 | 52 | 1016.1 |
| 20260504181216 | 65 | 225 | 6.0 | 12.0 | 0.00 | 0.00 | 0.00 | 52 | 1016.2 |
| 20260504180948 | 65 | 223 | 5.0 | 12.0 | 0.00 | 0.00 | 0.00 | 53 | 1016.0 |
| 20260504180218 | 65 | 231 | 5.0 | 12.0 | 0.00 | 0.00 | 0.00 | 54 | 1016.0 |
| 20260504175715 | 65 | 212 | 5.0 | 12.0 | 0.00 | 0.00 | 0.00 | 55 | 1016.0 |
| 20260504175215 | 64 | 220 | 5.0 | 12.0 | 0.00 | 0.00 | 0.00 | 56 | 1016.0 |
| 20260504174947 | 64 | 209 | 6.0 | 12.0 | 0.00 | 0.00 | 0.00 | 58 | 1016.1 |
| 20260504174216 | 64 | 205 | 7.0 | 13.0 | 0.00 | 0.00 | 0.00 | 58 | 1016.1 |
| 20260504173715 | 64 | 232 | 6.0 | 13.0 | 0.00 | 0.00 | 0.00 | 59 | 1016.1 |
| 20260504173216 | 64 | 207 | 5.0 | 10.0 | 0.00 | 0.00 | 0.00 | 59 | 1016.0 |
| 20260504172716 | 64 | 224 | 5.0 | 11.0 | 0.00 | 0.00 | 0.00 | 60 | 1016.0 |
| 20260504172216 | 64 | 224 | 6.0 | 11.0 | 0.00 | 0.00 | 0.00 | 60 | 1015.9 |
| 20260504171944 | 63 | 229 | 5.0 | 10.0 | 0.00 | 0.00 | 0.00 | 60 | 1015.8 |
| 20260504171208 | 63 | 222 | 4.0 | 8.0 | 0.00 | 0.00 | 0.00 | 60 | 1015.9 |
| 20260504170709 | 63 | 205 | 4.0 | 9.0 | 0.00 | 0.00 | 0.00 | 61 | 1016.0 |
| 20260504170209 | 62 | 222 | 5.0 | 11.0 | 0.00 | 0.00 | 0.00 | 62 | 1015.8 |
| 20260504160203 | 60 | 221 | 3.0 | 6.0 | 0.00 | 0.00 | 0.00 | 68 | 1015.7 |
| 20260504150657 | 57 | 227 | 3.0 | 5.0 | 0.00 | 0.00 | 0.00 | 76 | 1015.6 |
| 20260504150427 | 57 | 228 | 3.0 | 8.0 | 0.00 | 0.00 | 0.00 | 76 | 1015.5 |
| 20260504140648 | 56 | 232 | 2.0 | 7.0 | 0.00 | 0.00 | 0.00 | 79 | 1015.1 |
| 20260504140144 | 56 | 232 | 2.0 | 7.0 | 0.00 | 0.00 | 0.00 | 79 | 1015.3 |
| 20260504130635 | 55 | 232 | 2.0 | 6.0 | 0.00 | 0.00 | 0.00 | 79 | 1015.4 |
| 20260504130136 | 55 | 232 | 2.0 | 6.0 | 0.00 | 0.00 | 0.00 | 79 | 1015.3 |
| 20260504120134 | 55 | 232 | 1.0 | 4.0 | 0.00 | 0.00 | 0.00 | 78 | 1014.9 |
| 20260504110628 | 56 | 232 | 2.0 | 4.0 | 0.00 | 0.00 | 0.00 | 79 | 1014.8 |
| 20260504110357 | 56 | 232 | 2.0 | 4.0 | 0.00 | 0.00 | 0.00 | 78 | 1014.9 |
| 20260504100615 | 57 | 232 | 3.0 | 7.0 | 0.00 | 0.00 | 0.00 | 76 | 1014.5 |
| 20260504100116 | 57 | 232 | 3.0 | 7.0 | 0.00 | 0.00 | 0.00 | 76 | 1014.4 |
| 20260504081830 | 58 | 236 | 3.0 | 7.0 | 0.00 | 0.00 | 0.00 | 75 | 1015.8 |
| 20260504081100 | 58 | 235 | 4.0 | 8.0 | 0.00 | 0.00 | 0.00 | 75 | 1015.9 |
| 20260504080559 | 58 | 235 | 4.0 | 8.0 | 0.00 | 0.00 | 0.00 | 75 | 1016.0 |
| 20260504050535 | 60 | 219 | 6.0 | 10.0 | 0.00 | 0.00 | 0.00 | 70 | 1014.9 |
| 20260504045534 | 60 | 222 | 6.0 | 11.0 | 0.00 | 0.00 | 0.00 | 70 | 1015.0 |
| 20260504045033 | 60 | 223 | 6.0 | 10.0 | 0.00 | 0.00 | 0.00 | 69 | 1014.9 |
| 20260504044533 | 60 | 225 | 7.0 | 10.0 | 0.00 | 0.00 | 0.00 | 69 | 1014.9 |
| 20260504044033 | 60 | 218 | 6.0 | 10.0 | 0.00 | 0.00 | 0.00 | 69 | 1015.1 |
| 20260504043535 | 60 | 221 | 5.0 | 9.0 | 0.00 | 0.00 | 0.00 | 68 | 1014.9 |
| 20260504043034 | 60 | 223 | 6.0 | 12.0 | 0.00 | 0.00 | 0.00 | 68 | 1014.9 |
| 20260504042535 | 60 | 223 | 6.0 | 12.0 | 0.00 | 0.00 | 0.00 | 68 | 1014.8 |
| 20260504042034 | 60 | 227 | 6.0 | 10.0 | 0.00 | 0.00 | 0.00 | 67 | 1014.9 |
| 20260504041531 | 60 | 215 | 6.0 | 10.0 | 0.00 | 0.00 | 0.00 | 67 | 1014.6 |
| 20260504041032 | 60 | 228 | 5.0 | 12.0 | 0.00 | 0.00 | 0.00 | 66 | 1014.7 |
| 20260504040529 | 60 | 211 | 6.0 | 12.0 | 0.00 | 0.00 | 0.00 | 66 | 1014.7 |
| 20260504040031 | 60 | 220 | 6.0 | 11.0 | 0.00 | 0.00 | 0.00 | 66 | 1014.8 |
| 20260504035527 | 60 | 210 | 7.0 | 12.0 | 0.00 | 0.00 | 0.00 | 66 | 1014.7 |
| 20260504035029 | 60 | 212 | 7.0 | 12.0 | 0.00 | 0.00 | 0.00 | 66 | 1014.6 |
| 20260504034527 | 60 | 219 | 6.0 | 11.0 | 0.00 | 0.00 | 0.00 | 66 | 1014.6 |
| 20260504034028 | 61 | 219 | 6.0 | 12.0 | 0.00 | 0.00 | 0.00 | 66 | 1014.5 |
| 20260504033529 | 61 | 224 | 6.0 | 14.0 | 0.00 | 0.00 | 0.00 | 66 | 1014.4 |
| 20260504033029 | 61 | 225 | 7.0 | 15.0 | 0.00 | 0.00 | 0.00 | 66 | 1014.4 |
| 20260504032529 | 61 | 225 | 7.0 | 15.0 | 0.00 | 0.00 | 0.00 | 66 | 1014.3 |
| 20260504032258 | 61 | 225 | 7.0 | 13.0 | 0.00 | 0.00 | 0.00 | 66 | 1014.2 |
| 20260504031755 | 61 | 215 | 8.0 | 13.0 | 0.00 | 0.00 | 0.00 | 66 | 1014.1 |
| 20260504031023 | 61 | 212 | 8.0 | 12.0 | 0.00 | 0.00 | 0.00 | 66 | 1014.1 |
| 20260504030523 | 61 | 224 | 8.0 | 13.0 | 0.00 | 0.00 | 0.00 | 66 | 1014.1 |
| 20260504030020 | 61 | 227 | 8.0 | 15.0 | 0.00 | 0.00 | 0.00 | 66 | 1013.9 |
| 20260504025520 | 62 | 210 | 8.0 | 15.0 | 0.00 | 0.00 | 0.00 | 65 | 1013.8 |
| 20260504024520 | 62 | 205 | 9.0 | 17.0 | 0.00 | 0.00 | 0.00 | 65 | 1013.8 |
| 20260504024020 | 62 | 218 | 8.0 | 17.0 | 0.00 | 0.00 | 0.00 | 64 | 1013.8 |
| 20260504023514 | 62 | 211 | 7.0 | 13.0 | 0.00 | 0.00 | 0.00 | 63 | 1013.6 |
| 20260504023245 | 62 | 232 | 8.0 | 14.0 | 0.00 | 0.00 | 0.00 | 63 | 1013.5 |
| 20260504022745 | 62 | 220 | 9.0 | 14.0 | 0.00 | 0.00 | 0.00 | 62 | 1013.5 |
| 20260504022011 | 63 | 221 | 9.0 | 14.0 | 0.00 | 0.00 | 0.00 | 62 | 1013.2 |
| 20260504021511 | 63 | 213 | 8.0 | 14.0 | 0.00 | 0.00 | 0.00 | 62 | 1013.1 |
| 20260504021011 | 63 | 229 | 8.0 | 14.0 | 0.00 | 0.00 | 0.00 | 61 | 1013.1 |
| 20260504020743 | 64 | 219 | 8.0 | 14.0 | 0.00 | 0.00 | 0.00 | 61 | 1013.0 |
| 20260504020008 | 64 | 227 | 9.0 | 16.0 | 0.00 | 0.00 | 0.00 | 61 | 1012.9 |
| 20260504015508 | 64 | 231 | 8.0 | 16.0 | 0.00 | 0.00 | 0.00 | 60 | 1013.0 |
| 20260504015007 | 64 | 219 | 8.0 | 15.0 | 0.00 | 0.00 | 0.00 | 59 | 1012.9 |
| 20260504014509 | 65 | 215 | 8.0 | 15.0 | 0.00 | 0.00 | 0.00 | 59 | 1012.7 |
| 20260504014001 | 65 | 221 | 8.0 | 16.0 | 0.00 | 0.00 | 0.00 | 58 | 1012.7 |
| 20260504013501 | 65 | 223 | 8.0 | 16.0 | 0.00 | 0.00 | 0.00 | 58 | 1012.8 |
| 20260504012959 | 66 | 211 | 8.0 | 15.0 | 0.00 | 0.00 | 0.00 | 57 | 1012.6 |
| 20260504012501 | 66 | 215 | 7.0 | 13.0 | 0.00 | 0.00 | 0.00 | 57 | 1012.6 |
| 20260504012001 | 66 | 219 | 7.0 | 13.0 | 0.00 | 0.00 | 0.00 | 57 | 1012.6 |
| 20260504011501 | 66 | 227 | 8.0 | 14.0 | 0.00 | 0.00 | 0.00 | 57 | 1012.5 |
| 20260504011000 | 66 | 227 | 8.0 | 14.0 | 0.00 | 0.00 | 0.00 | 57 | 1012.5 |
| 20260504010500 | 66 | 218 | 8.0 | 14.0 | 0.00 | 0.00 | 0.00 | 57 | 1012.5 |
| 20260504005957 | 67 | 217 | 7.0 | 14.0 | 0.00 | 0.00 | 0.00 | 56 | 1012.3 |
| 20260504005456 | 67 | 227 | 7.0 | 14.0 | 0.00 | 0.00 | 0.00 | 56 | 1012.5 |
| 20260504004957 | 67 | 219 | 8.0 | 12.0 | 0.00 | 0.00 | 0.00 | 55 | 1012.3 |
| 20260504004453 | 67 | 222 | 8.0 | 12.0 | 0.00 | 0.00 | 0.00 | 55 | 1012.3 |
| 20260504003953 | 68 | 232 | 7.0 | 12.0 | 0.00 | 0.00 | 0.00 | 54 | 1012.2 |
| 20260504003452 | 68 | 214 | 8.0 | 17.0 | 0.00 | 0.00 | 0.00 | 54 | 1012.3 |
| 20260504002952 | 68 | 222 | 9.0 | 17.0 | 0.00 | 0.00 | 0.00 | 54 | 1012.3 |
| 20260504002448 | 68 | 223 | 8.0 | 13.0 | 0.00 | 0.00 | 0.00 | 54 | 1012.1 |
| 20260504001948 | 68 | 223 | 7.0 | 12.0 | 0.00 | 0.00 | 0.00 | 54 | 1012.1 |
| 20260504001448 | 68 | 233 | 7.0 | 14.0 | 0.00 | 0.00 | 0.00 | 55 | 1012.1 |
| 20260504000946 | 68 | 221 | 7.0 | 14.0 | 0.00 | 0.00 | 0.00 | 54 | 1012.0 |
| 20260504000446 | 69 | 223 | 7.0 | 12.0 | 0.00 | 0.00 | 0.00 | 54 | 1012.0 |
| 20260503235946 | 69 | 223 | 7.0 | 11.0 | 0.00 | 0.00 | 0.00 | 55 | 1012.1 |
| 20260503235445 | 69 | 215 | 7.0 | 14.0 | 0.00 | 0.00 | 0.00 | 54 | 1012.0 |
| 20260503234946 | 69 | 232 | 8.0 | 14.0 | 0.00 | 0.00 | 0.00 | 53 | 1012.0 |
| 20260503234447 | 70 | 220 | 6.0 | 10.0 | 0.00 | 0.00 | 0.00 | 53 | 1012.1 |
| 20260503234218 | 70 | 248 | 6.0 | 12.0 | 0.00 | 0.00 | 0.00 | 54 | 1012.2 |
| 20260503233445 | 69 | 233 | 6.0 | 14.0 | 0.00 | 0.00 | 0.00 | 57 | 1012.2 |
| 20260503232945 | 69 | 223 | 7.0 | 14.0 | 0.00 | 0.00 | 0.00 | 55 | 1012.2 |
| 20260503232446 | 69 | 225 | 7.0 | 13.0 | 0.00 | 0.00 | 0.00 | 55 | 1012.2 |
| 20260503231946 | 70 | 223 | 8.0 | 13.0 | 0.00 | 0.00 | 0.00 | 55 | 1012.5 |
| 20260503231446 | 71 | 223 | 7.0 | 14.0 | 0.00 | 0.00 | 0.00 | 54 | 1012.3 |
| 20260503230946 | 72 | 230 | 7.0 | 14.0 | 0.00 | 0.00 | 0.00 | 53 | 1012.3 |
| 20260503230446 | 71 | 265 | 7.0 | 15.0 | 0.00 | 0.00 | 0.00 | 57 | 1012.3 |
| 20260503230217 | 69 | 231 | 8.0 | 15.0 | 0.00 | 0.00 | 0.00 | 58 | 1012.6 |
| 20260503225710 | 69 | 234 | 8.0 | 13.0 | 0.00 | 0.00 | 0.00 | 59 | 1012.6 |
| 20260503224939 | 69 | 221 | 7.0 | 13.0 | 0.00 | 0.00 | 0.00 | 59 | 1012.7 |